Weather History for Parry Sound, ON

Change the Weather History Date:

Wednesday, January 22, 2014

  Actual Average Record
Temperature  
Mean Temperature -22 °F -  
Max Temperature 1 °F - - ()
Min Temperature -45 °F - - ()
Degree Days  
Heating Degree Days 87    
Moisture  
Dew Point -26 °F    
Average Humidity 68    
Maximum Humidity 79    
Minimum Humidity 42    
Precipitation  
Precipitation 0.20 in - - ()
Sea Level Pressure  
Sea Level Pressure 30.12 in    
Wind  
Wind Speed - ()    
Max Wind Speed -    
Max Gust Speed -    
T = Trace of Precipitation, MM = Missing Value Source: Averaged Metar Reports

Daily Weather History Graph

Daily Weather History Graph

Search for Another Location

Airport:

Trip Planner

Search our weather history database for the weather conditions in past years. The results will help you decide how hot, cold, wet, or windy it might be!

Date:

Astronomy

Jan. 22, 2014 Rise Set
Actual Time 7:50 AM EST 5:13 PM EST
Civil Twilight 7:18 AM EST 5:45 PM EST
Nautical Twilight 6:42 AM EST 6:21 PM EST
Astronomical Twilight 6:07 AM EST 6:56 PM EST
Moon No Moon Rise 10:31 AM EST (1/22)
Length of Visible Light 10h 26m
Length of Day
9h 22m
Waning Gibbous, 65% of the Moon is Illuminated
Jan 22
Waning Gibbous
Jan 24
Last Quarter
Jan 30
New
Feb 6
First Quarter
Feb 14
Full

Hourly Weather History & Observations

Time (EST) Temp. Dew Point Humidity Pressure Visibility Wind Dir Wind Speed Gust Speed Precip Events Conditions
12:00 AM -19.5 °F -24.5 °F 78% 30.21 in - North - - N/A   Unknown
1:00 AM -21 °F -26 °F 64% 30.19 in - Calm Calm - -  
1:00 AM -20.9 °F -26.1 °F 77% 30.19 in - North - - N/A   Unknown
2:00 AM -22.2 °F -27.9 °F 75% 30.19 in - North - - N/A   Unknown
3:00 AM -24.3 °F -30.3 °F 74% 30.20 in - North - - N/A   Unknown
4:00 AM -25.8 °F -31.9 °F 73% 30.18 in - North - - N/A   Unknown
5:00 AM -26.9 °F -33.3 °F 71% 30.18 in - North - - N/A   Unknown
6:00 AM -26.3 °F -32.4 °F 73% 30.16 in - North - - N/A   Unknown
7:00 AM -28 °F -34 °F 58% 30.16 in - Calm Calm - -  
7:00 AM -27.6 °F -34.1 °F 71% 30.16 in - North - - N/A   Unknown
8:00 AM -27.6 °F -34.1 °F 71% 30.15 in - North - - N/A   Unknown
9:00 AM -23.6 °F -29.6 °F 74% 30.16 in - North - - N/A   Unknown
10:00 AM -17.0 °F -22.4 °F 76% 30.14 in - North - - N/A   Unknown
11:00 AM -45.2 °F -49.4 °F 79% 30.15 in - North - - N/A   Unknown
12:00 PM -5.3 °F -13.7 °F 67% 30.10 in - North - - N/A   Unknown
1:00 PM -37 °F -46 °F 42% 30.09 in - Calm Calm - -  
1:00 PM -37.1 °F -45.8 °F 62% 30.09 in - North - - N/A   Unknown
2:00 PM -27.9 °F -37.1 °F 62% 30.07 in - North - - N/A   Unknown
3:00 PM -27.9 °F -37.7 °F 60% 30.06 in - North - - N/A   Unknown
4:00 PM 1.4 °F -10.3 °F 58% 30.04 in - North - - N/A   Unknown
5:00 PM -0.8 °F -11.2 °F 61% 30.05 in - North - - N/A   Unknown
6:00 PM -2.7 °F -10.5 °F 70% 30.07 in - North - - N/A   Unknown
7:00 PM -3 °F -11 °F 55% 30.07 in - Calm Calm - -  
7:00 PM -2.9 °F -11.0 °F 68% 30.07 in - North - - N/A   Unknown
8:00 PM -3.5 °F -10.8 °F 71% 30.08 in - North - - N/A   Unknown
9:00 PM -3.3 °F -11.2 °F 69% 30.08 in - North - - N/A   Unknown
10:00 PM -4.5 °F -11.7 °F 71% 30.07 in - North - - N/A   Unknown
11:00 PM -6.0 °F -13.2 °F 71% 30.09 in - North - - N/A   Unknown